This is the latest recevied weather packets stored in our database for station/object K4CRS-13. If no packets are shown the sender has not sent any weather packets the latest 10 day(s).
| Time | Temp. | Humidity | Pressure | Rain* | Wind** | Luminosity | Snow |
|---|---|---|---|---|---|---|---|
| 1777433966 | 17.22° C | 99% | 1048.9 hPa | 1.78 mm | - | 0 W/m² | - |
| 1777433657 | 17.22° C | 99% | 1049.5 hPa | 1.27 mm | - | 0 W/m² | - |
| 1777433353 | 17.22° C | 99% | 1049.3 hPa | 1.78 mm | - | 0 W/m² | - |
| 1777433049 | 17.22° C | 99% | 1049.1 hPa | 3.05 mm | - | 0 W/m² | - |
| 1777432744 | 17.22° C | 99% | 1048.6 hPa | 1.27 mm | - | 0 W/m² | - |
| 1777432440 | 17.78° C | 99% | 1048.4 hPa | 0 mm | - | 0 W/m² | - |
| 1777432135 | 17.78° C | 99% | 1048.9 hPa | 0 mm | - | 0 W/m² | - |
| 1777431830 | 17.78° C | 99% | 1048.7 hPa | 3.05 mm | - | 0 W/m² | - |
| 1777431527 | 18.33° C | 99% | 1049.1 hPa | 3.05 mm | - | 0 W/m² | - |
| 1777431223 | 18.33° C | 99% | 1048.8 hPa | 1.78 mm | - | 0 W/m² | - |
| 1777430919 | 18.33° C | 99% | 1048.8 hPa | 0 mm | - | 0 W/m² | - |
| 1777430616 | 18.33° C | 99% | 1049.5 hPa | 1.27 mm | - | 0 W/m² | - |
| 1777430311 | 18.33° C | 99% | 1050 hPa | 1.78 mm | - | 0 W/m² | - |
| 1777430011 | 18.89° C | 99% | 1050.6 hPa | 4.83 mm | - | 0 W/m² | - |
| 1777429708 | 18.89° C | 99% | 1050.5 hPa | 7.87 mm | - | 0 W/m² | - |
| 1777429404 | 18.89° C | 99% | 1050 hPa | 7.11 mm | - | 0 W/m² | - |
| 1777429100 | 18.89° C | 99% | 1049.1 hPa | 7.87 mm | - | 0 W/m² | - |
| 1777428796 | 18.89° C | 99% | 1050.6 hPa | 10.67 mm | - | 0 W/m² | - |
| 1777428492 | 18.89° C | 99% | 1050.4 hPa | 11.94 mm | - | 0 W/m² | - |
| 1777428188 | 18.89° C | 99% | 1050.9 hPa | 8.89 mm | - | 0 W/m² | - |
| 1777427884 | 18.89° C | 99% | 1050.2 hPa | 4.32 mm | - | 0 W/m² | - |
| 1777427580 | 18.89° C | 99% | 1050.1 hPa | 3.05 mm | - | 0 W/m² | - |
| 1777427276 | 18.89° C | 99% | 1050.1 hPa | 3.05 mm | - | 0 W/m² | - |
| 1777426975 | 18.89° C | 99% | 1049.8 hPa | 3.05 mm | - | 0 W/m² | - |
| 1777426671 | 18.89° C | 99% | 1049.9 hPa | 1.78 mm | - | 0 W/m² | - |
* Rain latest hour (hover to see other rain measurements)
** Current wind speed in m/s (hover to see current wind gust speed)